| time (UTC) | temp F | wind direction | speed knots | gust knots | rain 1hr in | rain 24hr in | rain mn in | humidity % | barometer mb |
| 20260509215003 | 75 | 240 | 3.5 | 10.4 | 0.00 | 0.00 | 0.00 | 50 | 1007.5 |
| 20260509214503 | 75 | 230 | 3.5 | 10.4 | 0.00 | 0.00 | 0.00 | 49 | 1007.5 |
| 20260509214024 | 75 | 218 | 3.5 | 8.7 | 0.00 | 0.00 | 0.00 | 49 | 1007.5 |
| 20260509213503 | 75 | 215 | 3.5 | 8.7 | 0.00 | 0.00 | 0.00 | 53 | 1007.6 |
| 20260509213003 | 75 | 204 | 2.6 | 8.7 | 0.00 | 0.00 | 0.00 | 54 | 1007.6 |
| 20260509212503 | 75 | 201 | 2.6 | 7.0 | 0.00 | 0.00 | 0.00 | 54 | 1007.7 |
| 20260509212003 | 75 | 220 | 2.6 | 7.0 | 0.00 | 0.00 | 0.00 | 54 | 1007.7 |
| 20260509211503 | 75 | 241 | 2.6 | 7.0 | 0.00 | 0.00 | 0.00 | 53 | 1007.7 |
| 20260509211003 | 75 | 250 | 2.6 | 7.0 | 0.00 | 0.00 | 0.00 | 54 | 1007.8 |
| 20260509210524 | 75 | 238 | 2.6 | 7.0 | 0.00 | 0.00 | 0.00 | 54 | 1007.7 |
| 20260509210003 | 75 | 219 | 2.6 | 7.0 | 0.00 | 0.00 | 0.00 | 56 | 1007.7 |
| 20260509205503 | 75 | 213 | 2.6 | 7.8 | 0.00 | 0.00 | 0.00 | 55 | 1007.7 |
| 20260509205003 | 75 | 201 | 2.6 | 8.7 | 0.00 | 0.00 | 0.00 | 58 | 1007.7 |
| 20260509204503 | 75 | 220 | 2.6 | 8.7 | 0.00 | 0.00 | 0.00 | 56 | 1007.8 |
| 20260509204003 | 75 | 236 | 2.6 | 7.8 | 0.00 | 0.00 | 0.00 | 55 | 1007.9 |
| 20260509203503 | 74 | 257 | 2.6 | 7.0 | 0.00 | 0.00 | 0.00 | 58 | 1007.9 |
| 20260509203003 | 74 | 246 | 3.5 | 11.3 | 0.00 | 0.00 | 0.00 | 59 | 1007.9 |
| 20260509202503 | 74 | 234 | 4.3 | 11.3 | 0.00 | 0.00 | 0.00 | 54 | 1008.0 |
| 20260509202024 | 74 | 224 | 3.5 | 11.3 | 0.00 | 0.00 | 0.00 | 57 | 1008.0 |
| 20260509201503 | 73 | 222 | 4.3 | 8.7 | 0.00 | 0.00 | 0.00 | 62 | 1007.8 |
| 20260509201003 | 73 | 220 | 4.3 | 9.6 | 0.00 | 0.00 | 0.00 | 60 | 1008.0 |
| 20260509200524 | 73 | 203 | 4.3 | 12.2 | 0.00 | 0.00 | 0.00 | 59 | 1008.0 |
| 20260509200003 | 73 | 200 | 3.5 | 12.2 | 0.00 | 0.00 | 0.00 | 61 | 1008.0 |
| 20260509195503 | 73 | 214 | 2.6 | 9.6 | 0.00 | 0.00 | 0.00 | 63 | 1008.1 |
| 20260509195003 | 74 | 206 | 2.6 | 9.6 | 0.00 | 0.00 | 0.00 | 60 | 1008.2 |
| 20260509194503 | 74 | 210 | 2.6 | 6.1 | 0.00 | 0.00 | 0.00 | 60 | 1008.3 |
| 20260509194003 | 74 | 220 | 2.6 | 7.0 | 0.00 | 0.00 | 0.00 | 63 | 1008.4 |
| 20260509193503 | 73 | 221 | 2.6 | 9.6 | 0.00 | 0.00 | 0.00 | 59 | 1008.3 |
| 20260509193003 | 73 | 239 | 2.6 | 9.6 | 0.00 | 0.00 | 0.00 | 60 | 1008.4 |
| 20260509192503 | 73 | 233 | 2.6 | 6.1 | 0.00 | 0.00 | 0.00 | 63 | 1008.4 |
| 20260509192024 | 73 | 228 | 2.6 | 6.1 | 0.00 | 0.00 | 0.00 | 62 | 1008.4 |
| 20260509191503 | 73 | 227 | 3.5 | 10.4 | 0.00 | 0.00 | 0.00 | 62 | 1008.4 |
| 20260509191003 | 72 | 225 | 4.3 | 10.4 | 0.00 | 0.00 | 0.00 | 61 | 1008.4 |
| 20260509190503 | 72 | 235 | 4.3 | 9.6 | 0.00 | 0.00 | 0.00 | 63 | 1008.5 |
| 20260509190003 | 72 | 226 | 3.5 | 9.6 | 0.00 | 0.00 | 0.00 | 63 | 1008.5 |
| 20260509185503 | 72 | 210 | 3.5 | 9.6 | 0.00 | 0.00 | 0.00 | 64 | 1008.4 |
| 20260509185003 | 72 | 230 | 3.5 | 9.6 | 0.00 | 0.00 | 0.00 | 64 | 1008.5 |
| 20260509184503 | 72 | 243 | 3.5 | 9.6 | 0.00 | 0.00 | 0.00 | 64 | 1008.5 |
| 20260509184024 | 72 | 234 | 3.5 | 10.4 | 0.00 | 0.00 | 0.00 | 67 | 1008.6 |
| 20260509183503 | 72 | 231 | 4.3 | 10.4 | 0.00 | 0.00 | 0.00 | 63 | 1008.5 |
| 20260509183003 | 71 | 225 | 4.3 | 10.4 | 0.00 | 0.00 | 0.00 | 62 | 1008.6 |
| 20260509182503 | 71 | 218 | 4.3 | 10.4 | 0.00 | 0.00 | 0.00 | 65 | 1008.5 |
| 20260509182024 | 71 | 221 | 3.5 | 10.4 | 0.00 | 0.00 | 0.00 | 66 | 1008.6 |
| 20260509181503 | 70 | 225 | 2.6 | 10.4 | 0.00 | 0.00 | 0.00 | 67 | 1008.6 |
| 20260509181003 | 70 | 218 | 2.6 | 7.8 | 0.00 | 0.00 | 0.00 | 65 | 1008.5 |
| 20260509180503 | 70 | 223 | 3.5 | 7.8 | 0.00 | 0.00 | 0.00 | 65 | 1008.5 |
| 20260509180003 | 70 | 224 | 3.5 | 8.7 | 0.00 | 0.00 | 0.00 | 71 | 1008.5 |
| 20260509175503 | 70 | 231 | 3.5 | 11.3 | 0.00 | 0.00 | 0.00 | 68 | 1008.4 |
| 20260509175003 | 70 | 237 | 3.5 | 11.3 | 0.00 | 0.00 | 0.00 | 69 | 1008.4 |
| 20260509174524 | 70 | 233 | 2.6 | 7.8 | 0.00 | 0.00 | 0.00 | 68 | 1008.3 |
| 20260509174003 | 70 | 233 | 3.5 | 11.3 | 0.00 | 0.00 | 0.00 | 70 | 1008.4 |
| 20260509173503 | 70 | 225 | 4.3 | 11.3 | 0.00 | 0.00 | 0.00 | 67 | 1008.6 |
| 20260509173003 | 70 | 237 | 3.5 | 10.4 | 0.00 | 0.00 | 0.00 | 66 | 1008.6 |
| 20260509172503 | 70 | 233 | 3.5 | 8.7 | 0.00 | 0.00 | 0.00 | 71 | 1008.6 |
| 20260509172024 | 70 | 215 | 2.6 | 9.6 | 0.00 | 0.00 | 0.00 | 67 | 1008.5 |
| 20260509171503 | 70 | 229 | 2.6 | 9.6 | 0.00 | 0.00 | 0.00 | 75 | 1008.5 |
| 20260509171024 | 69 | 219 | 3.5 | 8.7 | 0.00 | 0.00 | 0.00 | 71 | 1008.5 |
| 20260509170503 | 68 | 215 | 3.5 | 7.8 | 0.00 | 0.00 | 0.00 | 71 | 1008.4 |
| 20260509170003 | 68 | 226 | 3.5 | 8.7 | 0.00 | 0.00 | 0.00 | 71 | 1008.4 |
| 20260509165503 | 68 | 217 | 4.3 | 9.6 | 0.00 | 0.00 | 0.00 | 73 | 1008.4 |
| 20260509165003 | 68 | 198 | 3.5 | 10.4 | 0.00 | 0.00 | 0.00 | 71 | 1008.4 |
| 20260509164503 | 68 | 198 | 3.5 | 10.4 | 0.00 | 0.00 | 0.00 | 71 | 1008.4 |
| 20260509164003 | 67 | 219 | 3.5 | 8.7 | 0.00 | 0.00 | 0.00 | 71 | 1008.4 |
| 20260509163503 | 67 | 221 | 3.5 | 8.7 | 0.00 | 0.00 | 0.00 | 71 | 1008.5 |
| 20260509163003 | 67 | 215 | 2.6 | 8.7 | 0.00 | 0.00 | 0.00 | 73 | 1008.4 |
| 20260509162524 | 67 | 226 | 3.5 | 10.4 | 0.00 | 0.00 | 0.00 | 75 | 1008.4 |
| 20260509162003 | 66 | 218 | 3.5 | 10.4 | 0.00 | 0.00 | 0.00 | 72 | 1008.5 |
| 20260509161503 | 67 | 211 | 3.5 | 10.4 | 0.00 | 0.00 | 0.00 | 73 | 1008.5 |
| 20260509161024 | 66 | 210 | 3.5 | 10.4 | 0.00 | 0.00 | 0.00 | 73 | 1008.4 |
| 20260509160503 | 66 | 215 | 2.6 | 8.7 | 0.00 | 0.00 | 0.00 | 72 | 1008.4 |
| 20260509160003 | 67 | 216 | 2.6 | 8.7 | 0.00 | 0.00 | 0.00 | 72 | 1008.4 |
| 20260509155503 | 67 | 208 | 2.6 | 7.8 | 0.00 | 0.00 | 0.00 | 74 | 1008.4 |
| 20260509155003 | 66 | 220 | 2.6 | 7.8 | 0.00 | 0.00 | 0.00 | 73 | 1008.4 |
| 20260509154503 | 66 | 230 | 2.6 | 7.0 | 0.00 | 0.00 | 0.00 | 74 | 1008.4 |
| 20260509154003 | 65 | 228 | 2.6 | 7.0 | 0.00 | 0.00 | 0.00 | 74 | 1008.5 |
| 20260509153524 | 65 | 226 | 3.5 | 7.8 | 0.00 | 0.00 | 0.00 | 73 | 1008.4 |
| 20260509153003 | 65 | 221 | 3.5 | 7.8 | 0.00 | 0.00 | 0.00 | 72 | 1008.5 |
| 20260509152503 | 64 | 215 | 3.5 | 8.7 | 0.00 | 0.00 | 0.00 | 74 | 1008.5 |
| 20260509152003 | 64 | 225 | 3.5 | 10.4 | 0.00 | 0.00 | 0.00 | 76 | 1008.5 |
| 20260509151503 | 64 | 226 | 3.5 | 10.4 | 0.00 | 0.00 | 0.00 | 76 | 1008.4 |
| 20260509151003 | 63 | 216 | 2.6 | 7.0 | 0.00 | 0.00 | 0.00 | 78 | 1008.3 |
| 20260509150503 | 62 | 224 | 2.6 | 7.0 | 0.00 | 0.00 | 0.00 | 77 | 1008.3 |
| 20260509150024 | 62 | 222 | 2.6 | 7.8 | 0.00 | 0.00 | 0.00 | 78 | 1008.4 |
| 20260509145524 | 61 | 217 | 2.6 | 7.8 | 0.00 | 0.00 | 0.00 | 78 | 1008.3 |
| 20260509145024 | 61 | 219 | 2.6 | 7.8 | 0.00 | 0.00 | 0.00 | 78 | 1008.3 |
| 20260509144503 | 61 | 224 | 2.6 | 7.8 | 0.00 | 0.00 | 0.00 | 80 | 1008.3 |
| 20260509144003 | 61 | 225 | 3.5 | 9.6 | 0.00 | 0.00 | 0.00 | 78 | 1008.3 |
| 20260509143503 | 61 | 220 | 4.3 | 9.6 | 0.00 | 0.00 | 0.00 | 78 | 1008.4 |
| 20260509143003 | 61 | 215 | 4.3 | 11.3 | 0.00 | 0.00 | 0.00 | 77 | 1008.4 |
| 20260509142503 | 61 | 216 | 3.5 | 11.3 | 0.00 | 0.00 | 0.00 | 76 | 1008.4 |
| 20260509142003 | 61 | 217 | 3.5 | 9.6 | 0.00 | 0.00 | 0.00 | 78 | 1008.5 |
| 20260509141503 | 61 | 222 | 3.5 | 9.6 | 0.00 | 0.00 | 0.00 | 78 | 1008.4 |
| 20260509141003 | 60 | 223 | 3.5 | 7.8 | 0.00 | 0.00 | 0.00 | 78 | 1008.5 |
| 20260509140524 | 60 | 219 | 3.5 | 7.0 | 0.00 | 0.00 | 0.00 | 80 | 1008.4 |
| 20260509140024 | 60 | 213 | 2.6 | 7.0 | 0.00 | 0.00 | 0.00 | 81 | 1008.4 |
| 20260509135503 | 59 | 215 | 2.6 | 6.1 | 0.00 | 0.00 | 0.00 | 82 | 1008.4 |
| 20260509135003 | 59 | 212 | 1.7 | 6.1 | 0.00 | 0.00 | 0.00 | 81 | 1008.3 |
| 20260509134503 | 59 | 212 | 0.9 | 4.3 | 0.00 | 0.00 | 0.00 | 81 | 1008.4 |
| 20260509134003 | 58 | 218 | 0.9 | 3.5 | 0.00 | 0.00 | 0.00 | 83 | 1008.4 |
| 20260509133503 | 58 | 213 | 0.9 | 2.6 | 0.00 | 0.00 | 0.00 | 83 | 1008.3 |
| 20260509133024 | 57 | 207 | 0.9 | 2.6 | 0.00 | 0.00 | 0.00 | 83 | 1008.2 |
| 20260509132503 | 57 | 215 | 0.9 | 2.6 | 0.00 | 0.00 | 0.00 | 85 | 1008.1 |
| 20260509132024 | 56 | 221 | 0.0 | 2.6 | 0.00 | 0.00 | 0.00 | 88 | 1008.0 |
| 20260509131503 | 56 | 250 | 0.0 | 0.9 | 0.00 | 0.00 | 0.00 | 87 | 1008.0 |
| 20260509131003 | 56 | 0 | 0.0 | 0.0 | 0.00 | 0.00 | 0.00 | 87 | 1008.0 |
| 20260509130503 | 55 | 0 | 0.0 | 0.0 | 0.00 | 0.00 | 0.00 | 87 | 1008.0 |
| 20260509130024 | 55 | 260 | 0.0 | 1.7 | 0.00 | 0.00 | 0.00 | 87 | 1007.9 |
| 20260509125524 | 55 | 290 | 0.0 | 1.7 | 0.00 | 0.00 | 0.00 | 87 | 1008.1 |
| 20260509125003 | 55 | 24 | 0.0 | 1.7 | 0.00 | 0.00 | 0.00 | 86 | 1007.9 |
| 20260509124503 | 54 | 55 | 0.9 | 1.7 | 0.00 | 0.00 | 0.00 | 87 | 1007.9 |
| 20260509124003 | 54 | 108 | 0.0 | 1.7 | 0.00 | 0.00 | 0.00 | 86 | 1007.9 |
| 20260509123503 | 54 | 0 | 0.0 | 0.0 | 0.00 | 0.00 | 0.00 | 85 | 1008.2 |
| 20260509123003 | 54 | 138 | 0.0 | 0.9 | 0.00 | 0.00 | 0.00 | 85 | 1008.1 |
| 20260509122503 | 54 | 148 | 0.0 | 1.7 | 0.00 | 0.00 | 0.00 | 84 | 1008.1 |
| 20260509122003 | 54 | 160 | 0.9 | 1.7 | 0.00 | 0.00 | 0.00 | 85 | 1007.8 |
| 20260509121524 | 54 | 174 | 0.9 | 2.6 | 0.00 | 0.00 | 0.00 | 85 | 1007.9 |
| 20260509121003 | 54 | 31 | 1.7 | 6.1 | 0.00 | 0.00 | 0.00 | 84 | 1007.6 |
| 20260509120503 | 54 | 32 | 2.6 | 6.1 | 0.00 | 0.00 | 0.00 | 84 | 1007.2 |
| 20260509120003 | 54 | 38 | 1.7 | 4.3 | 0.00 | 0.00 | 0.00 | 85 | 1007.1 |
| 20260509115524 | 54 | 31 | 0.9 | 2.6 | 0.00 | 0.00 | 0.00 | 86 | 1007.2 |
| 20260509115003 | 54 | 5 | 1.7 | 4.3 | 0.00 | 0.00 | 0.00 | 84 | 1007.8 |
| 20260509114503 | 53 | 358 | 1.7 | 4.3 | 0.00 | 0.00 | 0.00 | 86 | 1007.6 |
| 20260509114003 | 53 | 336 | 1.7 | 2.6 | 0.00 | 0.00 | 0.00 | 87 | 1007.7 |
| 20260509113503 | 53 | 330 | 0.9 | 2.6 | 0.00 | 0.00 | 0.00 | 88 | 1007.6 |
| 20260509113024 | 53 | 216 | 0.0 | 1.7 | 0.00 | 0.00 | 0.00 | 89 | 1007.4 |
| 20260509112503 | 53 | 166 | 0.0 | 1.7 | 0.00 | 0.00 | 0.00 | 90 | 1007.4 |
| 20260509112003 | 53 | 171 | 0.0 | 1.7 | 0.00 | 0.00 | 0.00 | 88 | 1007.4 |
| 20260509111503 | 53 | 248 | 0.0 | 0.9 | 0.00 | 0.00 | 0.00 | 88 | 1007.5 |
| 20260509111003 | 53 | 248 | 0.0 | 0.9 | 0.00 | 0.00 | 0.00 | 88 | 1007.5 |
| 20260509110524 | 53 | 248 | 0.0 | 0.9 | 0.00 | 0.00 | 0.00 | 87 | 1007.5 |
| 20260509110024 | 53 | 248 | 0.0 | 0.9 | 0.00 | 0.00 | 0.00 | 88 | 1007.6 |
| 20260509105503 | 53 | 256 | 0.0 | 1.7 | 0.00 | 0.00 | 0.00 | 87 | 1007.6 |
| 20260509105003 | 53 | 254 | 0.0 | 1.7 | 0.00 | 0.00 | 0.00 | 85 | 1007.6 |
| 20260509104503 | 53 | 248 | 0.0 | 0.9 | 0.00 | 0.00 | 0.00 | 85 | 1007.5 |
| 20260509104003 | 53 | 248 | 0.0 | 0.9 | 0.00 | 0.00 | 0.00 | 85 | 1007.5 |
| 20260509103503 | 54 | 246 | 0.0 | 1.7 | 0.00 | 0.00 | 0.00 | 85 | 1007.5 |
| 20260509103003 | 54 | 245 | 0.0 | 1.7 | 0.00 | 0.00 | 0.00 | 86 | 1007.6 |
| 20260509102503 | 54 | 241 | 0.0 | 0.9 | 0.00 | 0.00 | 0.00 | 84 | 1007.6 |
| 20260509102003 | 54 | 241 | 0.0 | 0.9 | 0.00 | 0.00 | 0.00 | 84 | 1007.5 |
| 20260509101503 | 54 | 0 | 0.0 | 0.0 | 0.00 | 0.00 | 0.00 | 83 | 1007.6 |
| 20260509101003 | 54 | 0 | 0.0 | 0.0 | 0.00 | 0.00 | 0.00 | 82 | 1007.6 |
| 20260509100503 | 54 | 0 | 0.0 | 0.0 | 0.00 | 0.00 | 0.00 | 82 | 1007.5 |
| 20260509100003 | 54 | 250 | 0.0 | 1.7 | 0.00 | 0.00 | 0.00 | 80 | 1007.6 |
| 20260509095503 | 55 | 256 | 0.0 | 1.7 | 0.00 | 0.00 | 0.00 | 80 | 1007.6 |
| 20260509095024 | 55 | 295 | 0.0 | 1.7 | 0.00 | 0.00 | 0.00 | 80 | 1007.6 |
| 20260509094503 | 55 | 296 | 0.0 | 0.9 | 0.00 | 0.00 | 0.00 | 80 | 1007.5 |
| 20260509094003 | 55 | 295 | 0.0 | 0.9 | 0.00 | 0.00 | 0.00 | 81 | 1007.6 |
| 20260509093524 | 55 | 295 | 0.0 | 0.9 | 0.00 | 0.00 | 0.00 | 81 | 1007.6 |
| 20260509093003 | 55 | 295 | 0.0 | 0.9 | 0.00 | 0.00 | 0.00 | 78 | 1007.8 |
| 20260509092503 | 55 | 295 | 0.0 | 0.9 | 0.00 | 0.00 | 0.00 | 78 | 1007.8 |
| 20260509092003 | 55 | 295 | 0.0 | 0.9 | 0.00 | 0.00 | 0.00 | 79 | 1007.8 |
| 20260509091524 | 56 | 296 | 0.9 | 1.7 | 0.00 | 0.00 | 0.00 | 79 | 1007.8 |
| 20260509091003 | 56 | 287 | 0.9 | 2.6 | 0.00 | 0.00 | 0.00 | 78 | 1007.8 |
| 20260509090503 | 56 | 271 | 0.9 | 2.6 | 0.00 | 0.00 | 0.00 | 75 | 1007.7 |
| 20260509090003 | 56 | 257 | 0.9 | 2.6 | 0.00 | 0.00 | 0.00 | 74 | 1007.7 |
| 20260509085503 | 56 | 218 | 0.0 | 1.7 | 0.00 | 0.00 | 0.00 | 73 | 1007.6 |
| 20260509085003 | 56 | 228 | 0.9 | 1.7 | 0.00 | 0.00 | 0.00 | 71 | 1007.7 |
| 20260509084503 | 56 | 238 | 0.0 | 1.7 | 0.00 | 0.00 | 0.00 | 72 | 1007.6 |
| 20260509084003 | 56 | 224 | 0.0 | 1.7 | 0.00 | 0.00 | 0.00 | 73 | 1007.7 |
| 20260509083503 | 55 | 205 | 0.9 | 4.3 | 0.00 | 0.00 | 0.00 | 74 | 1007.7 |
| 20260509083003 | 55 | 189 | 0.9 | 4.3 | 0.00 | 0.00 | 0.00 | 76 | 1007.9 |
| 20260509082503 | 55 | 192 | 0.9 | 4.3 | 0.00 | 0.00 | 0.00 | 79 | 1007.9 |
| 20260509082003 | 54 | 197 | 0.9 | 5.2 | 0.00 | 0.00 | 0.00 | 83 | 1007.8 |
| 20260509081503 | 54 | 194 | 0.9 | 5.2 | 0.00 | 0.00 | 0.00 | 85 | 1007.9 |
| 20260509081003 | 54 | 193 | 0.9 | 1.7 | 0.00 | 0.00 | 0.00 | 87 | 1007.9 |
| 20260509080503 | 54 | 176 | 0.0 | 1.7 | 0.00 | 0.00 | 0.00 | 88 | 1007.9 |
| 20260509080003 | 54 | 180 | 0.0 | 2.6 | 0.00 | 0.00 | 0.00 | 88 | 1007.9 |
| 20260509075503 | 54 | 171 | 0.0 | 2.6 | 0.00 | 0.00 | 0.00 | 88 | 1007.9 |
| 20260509075024 | 54 | 164 | 0.0 | 1.7 | 0.00 | 0.00 | 0.00 | 88 | 1007.9 |
| 20260509074503 | 54 | 164 | 0.0 | 1.7 | 0.00 | 0.00 | 0.00 | 88 | 1008.0 |
| 20260509074003 | 54 | 0 | 0.0 | 0.0 | 0.00 | 0.00 | 0.00 | 89 | 1008.0 |
| 20260509073503 | 54 | 0 | 0.0 | 0.0 | 0.00 | 0.00 | 0.00 | 88 | 1008.1 |
| 20260509073024 | 54 | 0 | 0.0 | 0.0 | 0.00 | 0.00 | 0.00 | 88 | 1008.1 |
| 20260509072503 | 54 | 0 | 0.0 | 0.0 | 0.00 | 0.00 | 0.00 | 89 | 1008.1 |
| 20260509072003 | 54 | 0 | 0.0 | 0.0 | 0.00 | 0.00 | 0.00 | 88 | 1008.1 |
| 20260509071503 | 54 | 0 | 0.0 | 0.0 | 0.00 | 0.00 | 0.00 | 87 | 1008.1 |
| 20260509071003 | 54 | 0 | 0.0 | 0.0 | 0.00 | 0.00 | 0.00 | 86 | 1008.3 |
| 20260509070503 | 54 | 179 | 0.0 | 1.7 | 0.00 | 0.00 | 0.00 | 86 | 1008.3 |
| 20260509070003 | 54 | 187 | 0.0 | 1.7 | 0.00 | 0.00 | 0.00 | 86 | 1008.4 |
| 20260509065503 | 54 | 229 | 0.0 | 0.9 | 0.00 | 0.00 | 0.00 | 85 | 1008.4 |
| 20260509065003 | 54 | 0 | 0.0 | 0.0 | 0.00 | 0.00 | 0.00 | 86 | 1008.4 |
| 20260509064503 | 54 | 0 | 0.0 | 0.0 | 0.00 | 0.00 | 0.00 | 86 | 1008.6 |
| 20260509064024 | 54 | 0 | 0.0 | 0.0 | 0.00 | 0.00 | 0.00 | 88 | 1008.6 |
| 20260509063503 | 54 | 225 | 0.0 | 0.9 | 0.00 | 0.00 | 0.00 | 87 | 1008.7 |
| 20260509063024 | 54 | 225 | 0.0 | 0.9 | 0.00 | 0.00 | 0.00 | 86 | 1008.7 |
| 20260509062503 | 54 | 0 | 0.0 | 0.0 | 0.00 | 0.00 | 0.00 | 87 | 1008.7 |
| 20260509062003 | 54 | 0 | 0.0 | 0.0 | 0.00 | 0.00 | 0.00 | 86 | 1008.6 |
| 20260509061503 | 54 | 0 | 0.0 | 0.0 | 0.00 | 0.00 | 0.00 | 86 | 1008.5 |
| 20260509061003 | 54 | 0 | 0.0 | 0.0 | 0.00 | 0.00 | 0.00 | 86 | 1008.5 |
| 20260509060503 | 54 | 0 | 0.0 | 0.0 | 0.00 | 0.00 | 0.00 | 86 | 1008.6 |
| 20260509060003 | 54 | 0 | 0.0 | 0.0 | 0.00 | 0.00 | 0.00 | 86 | 1008.5 |
| 20260509055503 | 54 | 0 | 0.0 | 0.0 | 0.00 | 0.00 | 0.00 | 86 | 1008.6 |
| 20260509055024 | 54 | 0 | 0.0 | 0.0 | 0.00 | 0.00 | 0.00 | 86 | 1008.5 |
| 20260509054524 | 54 | 0 | 0.0 | 0.0 | 0.00 | 0.00 | 0.00 | 86 | 1008.6 |
| 20260509054003 | 54 | 229 | 0.0 | 0.9 | 0.00 | 0.00 | 0.00 | 85 | 1008.7 |
| 20260509053503 | 54 | 229 | 0.0 | 0.9 | 0.00 | 0.00 | 0.00 | 84 | 1008.6 |
| 20260509053003 | 54 | 229 | 0.0 | 0.9 | 0.00 | 0.00 | 0.00 | 84 | 1008.6 |
| 20260509052503 | 54 | 229 | 0.0 | 0.9 | 0.00 | 0.00 | 0.00 | 83 | 1008.6 |
| 20260509052003 | 54 | 229 | 0.0 | 0.9 | 0.00 | 0.00 | 0.00 | 83 | 1008.6 |
| 20260509051503 | 54 | 229 | 0.0 | 0.9 | 0.00 | 0.00 | 0.00 | 84 | 1008.6 |
| 20260509051003 | 54 | 228 | 0.0 | 0.9 | 0.00 | 0.00 | 0.00 | 83 | 1008.6 |
| 20260509050503 | 54 | 0 | 0.0 | 0.0 | 0.00 | 0.00 | 0.00 | 83 | 1008.7 |
| 20260509050003 | 54 | 0 | 0.0 | 0.0 | 0.00 | 0.00 | 0.00 | 83 | 1008.6 |
| 20260509045524 | 54 | 0 | 0.0 | 0.0 | 0.00 | 0.00 | 0.00 | 83 | 1008.6 |
| 20260509045003 | 54 | 0 | 0.0 | 0.0 | 0.00 | 0.00 | 0.00 | 80 | 1008.6 |
| 20260509044503 | 53 | 0 | 0.0 | 0.0 | 0.00 | 0.00 | 0.00 | 81 | 1008.6 |
| 20260509044003 | 53 | 0 | 0.0 | 0.0 | 0.00 | 0.00 | 0.00 | 84 | 1008.7 |
| 20260509043503 | 53 | 0 | 0.0 | 0.0 | 0.00 | 0.00 | 0.00 | 83 | 1008.6 |
| 20260509043003 | 53 | 0 | 0.0 | 0.0 | 0.00 | 0.00 | 0.00 | 82 | 1008.8 |
| 20260509042503 | 53 | 0 | 0.0 | 0.0 | 0.00 | 0.00 | 0.00 | 82 | 1008.8 |
| 20260509042003 | 53 | 0 | 0.0 | 0.0 | 0.00 | 0.00 | 0.00 | 83 | 1008.8 |
| 20260509041503 | 53 | 0 | 0.0 | 0.0 | 0.00 | 0.00 | 0.00 | 81 | 1009.0 |
| 20260509041003 | 53 | 229 | 0.0 | 0.9 | 0.00 | 0.00 | 0.00 | 81 | 1009.1 |
| 20260509040503 | 54 | 229 | 0.0 | 0.9 | 0.00 | 0.00 | 0.00 | 80 | 1009.1 |
| 20260509040003 | 54 | 0 | 0.0 | 0.0 | 0.00 | 0.00 | 0.00 | 80 | 1009.2 |
| 20260509035503 | 54 | 0 | 0.0 | 0.0 | 0.00 | 0.00 | 0.00 | 77 | 1009.1 |
| 20260509035003 | 54 | 0 | 0.0 | 0.0 | 0.00 | 0.00 | 0.00 | 76 | 1009.1 |
| 20260509034524 | 55 | 0 | 0.0 | 0.0 | 0.00 | 0.00 | 0.00 | 76 | 1009.1 |
| 20260509034003 | 55 | 0 | 0.0 | 0.0 | 0.00 | 0.00 | 0.00 | 75 | 1009.1 |
| 20260509033503 | 55 | 0 | 0.0 | 0.0 | 0.00 | 0.00 | 0.00 | 73 | 1009.2 |
| 20260509033003 | 56 | 0 | 0.0 | 0.0 | 0.00 | 0.00 | 0.00 | 72 | 1009.3 |
| 20260509032503 | 56 | 0 | 0.0 | 0.0 | 0.00 | 0.00 | 0.00 | 73 | 1009.3 |
| 20260509032024 | 56 | 0 | 0.0 | 0.0 | 0.00 | 0.00 | 0.00 | 71 | 1009.3 |
| 20260509031524 | 56 | 0 | 0.0 | 0.0 | 0.00 | 0.00 | 0.00 | 75 | 1009.4 |
| 20260509031003 | 56 | 0 | 0.0 | 0.0 | 0.00 | 0.00 | 0.00 | 75 | 1009.5 |
| 20260509030503 | 56 | 0 | 0.0 | 0.0 | 0.00 | 0.00 | 0.00 | 74 | 1009.6 |
| 20260509030003 | 57 | 0 | 0.0 | 0.0 | 0.00 | 0.00 | 0.00 | 75 | 1009.6 |
| 20260509025524 | 57 | 0 | 0.0 | 0.0 | 0.00 | 0.00 | 0.00 | 75 | 1009.5 |
| 20260509025024 | 57 | 0 | 0.0 | 0.0 | 0.00 | 0.00 | 0.00 | 73 | 1009.6 |
| 20260509024524 | 57 | 0 | 0.0 | 0.0 | 0.00 | 0.00 | 0.00 | 72 | 1009.6 |
| 20260509024003 | 57 | 0 | 0.0 | 0.0 | 0.00 | 0.00 | 0.00 | 73 | 1009.6 |
| 20260509023524 | 57 | 225 | 0.0 | 0.9 | 0.00 | 0.00 | 0.00 | 70 | 1009.6 |
| 20260509023003 | 57 | 201 | 0.0 | 0.9 | 0.00 | 0.00 | 0.00 | 70 | 1009.7 |
| 20260509022524 | 58 | 190 | 0.0 | 1.7 | 0.00 | 0.00 | 0.00 | 72 | 1009.7 |
| 20260509022024 | 58 | 200 | 0.9 | 1.7 | 0.00 | 0.00 | 0.00 | 73 | 1009.7 |
| 20260509021503 | 58 | 205 | 0.9 | 1.7 | 0.00 | 0.00 | 0.00 | 72 | 1009.7 |
| 20260509021003 | 58 | 204 | 0.0 | 1.7 | 0.00 | 0.00 | 0.00 | 70 | 1009.7 |
| 20260509020503 | 58 | 200 | 0.0 | 1.7 | 0.00 | 0.00 | 0.00 | 69 | 1009.7 |
| 20260509020024 | 59 | 203 | 0.0 | 0.9 | 0.00 | 0.00 | 0.00 | 68 | 1009.7 |
| 20260509015503 | 59 | 212 | 0.0 | 0.9 | 0.00 | 0.00 | 0.00 | 66 | 1009.8 |
| 20260509015003 | 60 | 212 | 0.0 | 0.9 | 0.00 | 0.00 | 0.00 | 64 | 1009.8 |
| 20260509014503 | 60 | 213 | 0.0 | 1.7 | 0.00 | 0.00 | 0.00 | 63 | 1009.8 |
| 20260509014003 | 61 | 210 | 0.0 | 1.7 | 0.00 | 0.00 | 0.00 | 61 | 1009.8 |
| 20260509013503 | 61 | 211 | 0.0 | 1.7 | 0.00 | 0.00 | 0.00 | 60 | 1009.8 |
| 20260509013003 | 61 | 219 | 0.9 | 1.7 | 0.00 | 0.00 | 0.00 | 54 | 1009.7 |
| 20260509012503 | 62 | 221 | 0.9 | 1.7 | 0.00 | 0.00 | 0.00 | 53 | 1009.7 |
| 20260509012003 | 62 | 214 | 0.9 | 1.7 | 0.00 | 0.00 | 0.00 | 50 | 1009.5 |
| 20260509011524 | 62 | 203 | 0.9 | 1.7 | 0.00 | 0.00 | 0.00 | 51 | 1009.4 |
| 20260509011003 | 63 | 199 | 0.9 | 2.6 | 0.00 | 0.00 | 0.00 | 51 | 1009.5 |
| 20260509010503 | 63 | 197 | 0.9 | 2.6 | 0.00 | 0.00 | 0.00 | 50 | 1009.4 |
| 20260509010003 | 63 | 190 | 0.9 | 3.5 | 0.00 | 0.00 | 0.00 | 50 | 1009.4 |
| 20260509005503 | 64 | 194 | 0.9 | 3.5 | 0.00 | 0.00 | 0.00 | 50 | 1009.4 |
| 20260509005003 | 64 | 200 | 1.7 | 3.5 | 0.00 | 0.00 | 0.00 | 49 | 1009.4 |
| 20260509004503 | 64 | 204 | 1.7 | 4.3 | 0.00 | 0.00 | 0.00 | 49 | 1009.4 |
| 20260509004003 | 64 | 201 | 1.7 | 5.2 | 0.00 | 0.00 | 0.00 | 49 | 1009.4 |
| 20260509003503 | 65 | 200 | 1.7 | 5.2 | 0.00 | 0.00 | 0.00 | 49 | 1009.5 |
| 20260509003003 | 65 | 207 | 1.7 | 4.3 | 0.00 | 0.00 | 0.00 | 47 | 1009.4 |
| 20260509002503 | 65 | 199 | 1.7 | 4.3 | 0.00 | 0.00 | 0.00 | 46 | 1009.5 |
| 20260509002003 | 66 | 193 | 1.7 | 3.5 | 0.00 | 0.00 | 0.00 | 47 | 1009.5 |
| 20260509001503 | 66 | 198 | 1.7 | 4.3 | 0.00 | 0.00 | 0.00 | 46 | 1009.6 |
| 20260509001024 | 66 | 203 | 1.7 | 5.2 | 0.00 | 0.00 | 0.00 | 45 | 1009.7 |
| 20260509000503 | 66 | 212 | 1.7 | 6.1 | 0.00 | 0.00 | 0.00 | 43 | 1009.8 |
| 20260509000003 | 67 | 211 | 1.7 | 7.0 | 0.00 | 0.00 | 0.00 | 45 | 1009.9 |
| 20260508235503 | 67 | 212 | 2.6 | 7.0 | 0.00 | 0.00 | 0.00 | 43 | 1009.9 |
| 20260508235003 | 67 | 218 | 2.6 | 7.0 | 0.00 | 0.00 | 0.00 | 42 | 1009.9 |
| 20260508234503 | 67 | 223 | 2.6 | 7.0 | 0.00 | 0.00 | 0.00 | 43 | 1009.9 |
| 20260508234003 | 68 | 217 | 3.5 | 9.6 | 0.00 | 0.00 | 0.00 | 42 | 1009.9 |
| 20260508233503 | 68 | 203 | 3.5 | 9.6 | 0.00 | 0.00 | 0.00 | 42 | 1009.8 |
| 20260508233003 | 68 | 197 | 3.5 | 8.7 | 0.00 | 0.00 | 0.00 | 43 | 1009.7 |
| 20260508232503 | 68 | 205 | 3.5 | 8.7 | 0.00 | 0.00 | 0.00 | 40 | 1009.9 |
| 20260508232003 | 69 | 208 | 2.6 | 8.7 | 0.00 | 0.00 | 0.00 | 41 | 1009.9 |
| 20260508231503 | 69 | 201 | 2.6 | 9.6 | 0.00 | 0.00 | 0.00 | 39 | 1009.9 |
| 20260508231003 | 70 | 209 | 3.5 | 9.6 | 0.00 | 0.00 | 0.00 | 39 | 1009.9 |
| 20260508230503 | 70 | 212 | 3.5 | 9.6 | 0.00 | 0.00 | 0.00 | 40 | 1009.9 |
| 20260508230003 | 70 | 205 | 3.5 | 13.0 | 0.00 | 0.00 | 0.00 | 40 | 1009.9 |
| 20260508225503 | 70 | 205 | 4.3 | 13.0 | 0.00 | 0.00 | 0.00 | 37 | 1009.8 |
| 20260508225024 | 71 | 206 | 4.3 | 9.6 | 0.00 | 0.00 | 0.00 | 38 | 1009.9 |
| 20260508224503 | 71 | 208 | 3.5 | 13.0 | 0.00 | 0.00 | 0.00 | 36 | 1009.8 |
| 20260508224003 | 71 | 213 | 3.5 | 13.0 | 0.00 | 0.00 | 0.00 | 38 | 1009.8 |
| 20260508223503 | 71 | 222 | 3.5 | 9.6 | 0.00 | 0.00 | 0.00 | 39 | 1009.9 |
| 20260508223003 | 71 | 218 | 3.5 | 9.6 | 0.00 | 0.00 | 0.00 | 38 | 1009.8 |
| 20260508222524 | 71 | 218 | 3.5 | 11.3 | 0.00 | 0.00 | 0.00 | 39 | 1009.9 |
| 20260508222003 | 71 | 220 | 4.3 | 13.0 | 0.00 | 0.00 | 0.00 | 39 | 1009.9 |
| 20260508221503 | 71 | 211 | 4.3 | 13.0 | 0.00 | 0.00 | 0.00 | 36 | 1009.9 |
| 20260508221003 | 72 | 195 | 3.5 | 9.6 | 0.00 | 0.00 | 0.00 | 38 | 1009.9 |
| 20260508220524 | 71 | 195 | 3.5 | 10.4 | 0.00 | 0.00 | 0.00 | 38 | 1009.8 |
| 20260508220003 | 72 | 200 | 3.5 | 10.4 | 0.00 | 0.00 | 0.00 | 40 | 1009.8 |
| 20260508215503 | 72 | 196 | 2.6 | 7.8 | 0.00 | 0.00 | 0.00 | 38 | 1009.8 |